Regional Weather Roundup
Issued by NWS

Home | Current Version | Previous Version | Graphics & Text | Print | Product List | Glossary On
Versions: 1 2 3 4 5 6 7 8 9 10 11 12 13 14 15 16 17 18 19 20 21 22 23 24 25 26 27 28 29 30 31 32 33 34 35 36 37 38 39 40 41 42 43 44 45 46 47 48 49 50
261
ASUS45 KSLC 071410
RWRUT

UTAH REGIONAL WEATHER ROUNDUP
NATIONAL WEATHER SERVICE SALT LAKE CITY UT
700 AM MST WED DEC 07 2016

UTZ001>011-023>025-071500-

NORTHERN UTAH

CITY           SKY/WX    TMP DP  RH WIND       PRES   REMARKS
BRIGHAM CITY     N/A     17  10  75 NW5       30.18R WCI  10
HILL AFB       PTCLDY    16   9  73 NW6       30.14R WCI   7
LOGAN          MOCLDY    16  11  80 N3        30.18R
OGDEN          PTCLDY    16  10  77 NW6       30.15R WCI   7
SALT LAKE CITY CLOUDY    23  15  71 N6        30.17R WCI  16
TOOELE VALLEY  PTCLDY    21  18  86 W6        30.17R WCI  14
WENDOVER       CLEAR     18   3  53 CALM      30.19R
HEBER CITY     MOCLDY    12   9  85 CALM      30.07R
WEST JORDAN    PTCLDY    19  18  96 W5        30.16R WCI  12

$$

UTZ011>015-024>027-071500-

CENTRAL/NORTHEAST UTAH

CITY           SKY/WX    TMP DP  RH WIND       PRES   REMARKS
PROVO AIRPORT  PTCLDY    21  15  78 NW13      30.16R WCI   9
MOAB/CANYONLAN CLEAR     24   5  44 W13       30.07R WCI  12
DELTA          CLOUDY    19  12  73 N3        30.15R
PRICE          CLEAR     15   5  64 N9        30.03R WCI   3
RICHFIELD      PTCLDY    16  10  79 CALM      30.13
ROOSEVELT      CLEAR     19   5  53 W10       30.07R WCI   8
VERNAL         CLOUDY    16   3  56 VRB3      30.06R

$$

UTZ013>016-019>022-027-071500-

SOUTHERN UTAH

CITY           SKY/WX    TMP DP  RH WIND       PRES   REMARKS
BRYCE CANYON   NOT AVBL
CEDAR CITY     CLEAR     11   6  81 N5        30.06R WCI   3
MILFORD        CLEAR     10   5  80 N7        30.11R WCI  -1
ST GEORGE      MOSUNNY   32   9  37 SE6       30.11R WCI  26
HANKSVILLE     CLEAR     23  10  58 NE3       30.12R
KANAB          CLEAR     27  12  54 N13       30.09  WCI  16
BLANDING       PTCLDY    23  12  63 SW6       30.10R WCI  15

$$

REGIONAL REPORTS     COLORADO/ARIZONA

CITY           SKY/WX    TMP DP  RH WIND       PRES   REMARKS
CRAIG, CO      CLOUDY     5   0  79 W3        30.02R
GRAND JUNCTION MOCLDY    15  15 100 E5        30.07R FOG     WCI   8
RIFLE, CO      CLOUDY    12   9  87 CALM      30.03R
MONTROSE, CO   MOCLDY    18  16  92 S3        30.05R
CORTEZ, CO     CLOUDY    26  19  74 CALM      30.01R
COLORADO CITY    N/A     19  16  86 CALM      30.06R
PAGE, AZ       CLOUDY    37   5  26 NW8       30.03R WCI  31
GRAND CANYON   CLOUDY    31  30  96 W3        30.01R
KINGMAN, AZ    PTCLDY    35  18  49 E9        30.01R WCI  28
FLAGSTAFF, AZ  MOCLDY    30  26  85 W5        30.00R WCI  25

$$

REGIONAL REPORTS    NEVADA/IDAHO/WYOMING

CITY           SKY/WX    TMP DP  RH WIND       PRES   REMARKS
LAS VEGAS, NV  MOCLDY    44   9  23 N13       30.08R
ELY, NY        CLEAR      4  -1  80 SW8       30.09R WCI  -9
ELKO, NV       CLEAR     11   5  77 E6        30.16R WCI   1
POCATELLO, ID  FLURRIES  16  13  88 NE3       30.19R
BURLEY, ID     LGT SNOW  18  14  84 W8        30.20R FOG     WCI   8
FORT BRIDGER,    N/A      2  -2  84 W8        30.04R WCI -12
EVANSTON, WY   CLOUDY     6  -1  73 NW7       30.01R WCI  -6
ROCK SPRINGS,  CLOUDY     1  -3  83 E9        30.01R WCI -14

$$




USA.gov is the U.S. government's official web portal to all federal, state and local government web resources and services.